パンスターズ彗星

C/2017 M3 ( PanSTARRS )

English version
Home page
Updated on February 13, 2018

---------------------------------------------------------------------

・ プロフィール

発見日 2017年6月20日
発見光度 21.1等
発見者 Pan-STARRS 1 telescope (Haleakala)

・ 軌道要素

Epoch 2017 May 7.0 TT = JDT 2457880.5
T 2017 Apr. 28.18385 TT                                 MPCW
q   4.6561807            (2000.0)            P               Q
z  +0.0057500      Peri.  110.31257     -0.36927033     -0.92167929
 +/-0.0000171      Node     6.99741     -0.21826540     -0.03839017
e   0.9732269      Incl.   77.50690     +0.90332698     -0.38604854
From 35 observations 2017 June 20-2018 Jan. 15, mean residual 0".3.

・ 光度変化

        m1 = 10.5 + 5 logΔ + 10.0 log r

---------------------------------------------------------------------

軌道要素はM.P.E.C. 2018-B155に掲載されたものです。
光度グラフはComet for Windowsで作成したものです。

---------------------------------------------------------------------

Copyright(C) Seiichi Yoshida (comet@aerith.net). All rights reserved.